Location: Choisy
(48.7685°N, 2.4187°E)
Time: 04:10:38
(UTC+00:00)

BlueWalker 3 - Pass Details

Date: 01 March 2024
Orbit: 485 x 495 km, 53.2° (Epoch: 24 April)

Event Time Altitude Azimuth Distance (km) Brightness Sun altitude
Rises 19:25:35 0° 295° (WNW) 2,563 7.0 -19.0°
Reaches altitude 10° 19:27:46 10° 293° (WNW) 1,677 5.8 -19.4°
Maximum altitude 19:31:31 67° 211° (SSW) 529 2.0 -20.0°
Enters shadow 19:32:06 56° 159° (SSE) 583 2.0 -20.1°
